STARLINK-32160 (60261 NORAD) Tracking and Keplerian Element Data

This shows tracking and keplerian element data for the satellite.

Feedback or suggestion? Click here.




ElementValue
Catalog60261
NameSTARLINK-32160
Epoch Orbit1321
Epoch Day286.70708134
Epoch Year2024
RAAN276.2523
Inclination53.1609
Eccentricity0.0001524
Argument of Perigee108.245
Mean Anonmoly251.872
Mean Motion15.39631067
Decay Rate3.848E-05
L11 60261U 24131G 24286.70708134 .00003848 00000+0 10609-3 0 9999
L22 60261 53.1609 276.2523 0001524 108.2450 251.8720 15.39631067 13213



Live tracking and technical data element details for STARLINK-32160 (NORAD 60261). STARLINK-32160 can be tracked NOW for your location showing map with azimuth and elevation plus other details from your city location.







IsCatalogInMostPopularTable: catalog: 60261, numindb: 11
Update: records affected: 1



GetName: 60261 STARLINK-32160

Hit Count: updated at: Thu, 23 Jan 2025 13:32:38 GMT